Date String (YYYY-MM-DD hh:mm:ss) UTC,Instrument flags,Ambient pressure (hPa),Sample flow (lpm),Bypass flow (lpm),Sample temperature (°C),Ambient temperature (°C),ASC tube jacket temperature (°C),LED temperature (°C),Box temperature (°C),Sample RH (%),Span deviation,Mass concentration (μg/m³),Mass concentration (μg/m³),Mass concentration (μg/m³)
DateTimeUTC,F1_M11,P_M11,Q1_M11,Q2_M11,T1_M11,T2_M11,T3_M11,T4_M11,T5_M11,U1_M11,ZSPAN_M11,X2_M11,X0_M11,X1_M11
2021-09-10 05:00:00,,0830.1,5.00,0.00,29.3,27.4,00.0,38.4,31.0,10.7,-002.1,0021.41,0035.75,0019.88
2021-09-10 05:01:00,,0830.2,5.01,0.00,29.3,27.7,00.0,38.4,31.1,10.6,-001.6,0021.38,0035.18,0019.87
2021-09-10 05:02:00,,0830.3,4.99,0.00,29.4,27.9,00.0,38.4,31.1,10.7,-001.5,0021.32,0034.47,0019.82
2021-09-10 05:03:00,,0830.4,5.00,0.00,29.4,28.1,00.0,38.4,31.2,11.1,-001.1,0021.28,0034.10,0019.77
2021-09-10 05:04:00,,0830.3,5.00,0.00,29.4,28.3,00.0,38.4,31.2,11.1,-000.8,0021.27,0034.07,0019.78
2021-09-10 05:05:00,,0830.5,5.00,0.00,29.5,28.4,00.0,38.5,31.3,10.7,-000.5,0021.22,0034.42,0019.74
2021-09-10 05:06:00,,0830.4,5.00,0.00,29.5,28.6,00.0,38.5,31.4,10.8,-000.6,0021.21,0034.10,0019.76
2021-09-10 05:07:00,,0830.4,5.01,0.00,29.6,28.7,00.0,38.5,31.4,11.1,-000.7,0021.20,0033.93,0019.80
2021-09-10 05:08:00,,0830.4,4.98,0.00,29.6,28.8,00.0,38.5,31.5,11.2,-000.7,0021.18,0033.85,0019.81
2021-09-10 05:09:00,,0830.4,5.02,0.00,29.7,28.8,00.0,38.6,31.5,11.1,-000.7,0021.25,0034.11,0019.84
2021-09-10 05:10:00,,0830.4,4.99,0.00,29.7,28.4,00.0,38.6,31.4,11.1,-000.5,0021.26,0034.27,0019.85
2021-09-10 05:11:00,,0830.4,5.00,0.00,29.6,26.7,00.0,38.6,31.0,11.2,-000.1,0021.26,0034.27,0019.86
2021-09-10 05:12:00,,0830.4,5.00,0.00,29.5,26.4,00.0,38.6,30.9,11.4,-000.0,0021.30,0033.95,0019.93
2021-09-10 05:13:00,,0830.5,5.00,0.00,29.4,26.7,00.0,38.5,30.9,11.4,0000.4,0021.32,0033.31,0019.97
2021-09-10 05:14:00,,0830.5,5.01,0.00,29.4,27.1,00.0,38.5,31.0,11.4,0000.2,0021.43,0032.90,0020.06
2021-09-10 05:15:00,,0830.4,4.99,0.00,29.4,27.5,00.0,38.5,31.0,11.4,-000.1,0021.55,0034.41,0020.11
2021-09-10 05:16:00,,0830.4,5.01,0.00,29.4,27.8,00.0,38.5,31.1,11.4,-000.5,0021.64,0034.24,0020.20
2021-09-10 05:17:00,,0830.5,4.99,0.00,29.4,28.0,00.0,38.5,31.2,11.3,-000.7,0021.72,0034.77,0020.26
2021-09-10 05:18:00,,0830.4,5.01,0.00,29.5,28.2,00.0,38.5,31.3,11.3,-001.0,0021.82,0035.18,0020.28
2021-09-10 05:19:00,,0830.4,4.98,0.00,29.5,28.4,00.0,38.5,31.3,11.3,-001.0,0021.90,0036.06,0020.31
2021-09-10 05:20:00,,0830.4,5.01,0.00,29.6,28.5,00.0,38.5,31.4,11.2,-001.0,0021.91,0036.56,0020.32
2021-09-10 05:21:00,,0830.4,5.00,0.00,29.6,28.7,00.0,38.5,31.4,11.2,-001.1,0021.97,0036.97,0020.32
2021-09-10 05:22:00,,0830.4,4.99,0.00,29.6,28.8,00.0,38.6,31.5,11.2,-001.2,0021.98,0037.94,0020.34
2021-09-10 05:23:00,,0830.3,5.01,0.00,29.7,28.7,00.0,38.6,31.5,11.1,-001.5,0021.96,0039.11,0020.31
2021-09-10 05:24:00,,0830.3,5.01,0.00,29.6,27.2,00.0,38.6,31.2,11.1,-001.9,0021.92,0039.35,0020.29
2021-09-10 05:25:00,,0830.3,5.00,0.00,29.5,26.4,00.0,38.6,30.9,11.1,-001.6,0021.83,0039.32,0020.24
2021-09-10 05:26:00,,0830.2,4.98,0.00,29.4,26.6,00.0,38.6,30.9,11.0,-001.4,0021.72,0037.64,0020.19
2021-09-10 05:27:00,,0830.2,5.01,0.00,29.4,27.0,00.0,38.5,31.0,10.7,-001.0,0021.61,0036.97,0020.10
2021-09-10 05:28:00,,0830.2,5.00,0.00,29.4,27.3,00.0,38.5,31.0,10.6,-000.7,0021.56,0036.89,0020.04
2021-09-10 05:29:00,,0830.2,5.01,0.00,29.4,27.7,00.0,38.5,31.1,10.6,-000.5,0021.43,0036.66,0019.97
2021-09-10 05:30:00,,0830.2,5.00,0.00,29.4,27.9,00.0,38.5,31.2,10.5,-000.4,0021.35,0035.93,0019.91
2021-09-10 05:31:00,,0830.1,5.00,0.00,29.5,28.1,00.0,38.5,31.2,10.5,-000.5,0021.34,0035.95,0019.87
2021-09-10 05:32:00,,0830.1,5.01,0.00,29.5,28.3,00.0,38.5,31.3,10.5,-000.3,0021.25,0035.40,0019.83
2021-09-10 05:33:00,,0830.1,5.00,0.00,29.5,28.4,00.0,38.5,31.3,10.5,-000.0,0021.13,0034.55,0019.74
2021-09-10 05:34:00,,0830.1,5.01,0.00,29.6,28.5,00.0,38.6,31.4,10.5,-000.3,0021.10,0034.02,0019.66
2021-09-10 05:35:00,,0830.1,5.00,0.00,29.6,28.6,00.0,38.6,31.4,10.3,0000.4,0021.10,0035.31,0019.62
2021-09-10 05:36:00,,0830.1,5.01,0.00,29.7,28.7,00.0,38.6,31.5,10.2,0001.1,0021.10,0035.30,0019.56
2021-09-10 05:37:00,,0830.1,5.00,0.00,29.7,28.8,00.0,38.6,31.5,10.4,0001.5,0021.05,0035.16,0019.49
2021-09-10 05:38:00,,0830.1,5.00,0.00,29.7,27.9,00.0,38.6,31.3,10.3,0001.0,0021.04,0035.27,0019.50
2021-09-10 05:39:00,,0830.1,5.01,0.00,29.5,25.8,00.0,38.6,30.7,10.5,0000.6,0021.00,0034.38,0019.49
2021-09-10 05:40:00,,0830.1,5.00,0.00,29.4,25.3,00.0,38.6,30.5,10.5,0001.0,0020.96,0033.81,0019.50
2021-09-10 05:41:00,,0830.0,5.00,0.00,29.3,25.7,00.0,38.5,30.6,10.6,0001.0,0020.91,0034.63,0019.47
2021-09-10 05:42:00,,0830.0,4.99,0.00,29.2,26.2,00.0,38.5,30.7,10.7,0001.4,0020.82,0034.81,0019.43
2021-09-10 05:43:00,,0830.1,5.01,0.00,29.2,26.7,00.0,38.4,30.8,10.4,0001.8,0020.78,0035.41,0019.42
2021-09-10 05:44:00,,0830.1,5.00,0.00,29.2,27.1,00.0,38.4,30.8,10.6,0001.4,0020.80,0035.66,0019.44
2021-09-10 05:45:00,,0830.1,5.01,0.00,29.2,27.4,00.0,38.4,30.9,10.5,0001.2,0020.79,0036.32,0019.43
2021-09-10 05:46:00,,0830.1,5.00,0.00,29.2,27.7,00.0,38.4,31.0,10.6,0000.5,0020.75,0035.79,0019.40
2021-09-10 05:47:00,,0830.1,5.01,0.00,29.3,27.9,00.0,38.4,31.0,10.7,-000.4,0020.68,0035.92,0019.40
2021-09-10 05:48:00,,0830.1,5.00,0.00,29.3,28.0,00.0,38.4,31.1,10.6,-000.9,0020.73,0036.00,0019.44
2021-09-10 05:49:00,,0830.1,5.00,0.00,29.3,28.2,00.0,38.4,31.1,10.6,-000.8,0020.74,0035.76,0019.41
2021-09-10 05:50:00,,0830.0,5.01,0.00,29.4,28.3,00.0,38.4,31.2,10.6,-000.8,0020.69,0035.64,0019.37
2021-09-10 05:51:00,,0830.0,5.00,0.00,29.4,28.4,00.0,38.4,31.2,10.6,-001.0,0020.68,0035.76,0019.34
2021-09-10 05:52:00,,0830.0,5.01,0.00,29.5,28.5,00.0,38.4,31.3,10.3,-001.1,0020.66,0034.92,0019.32
2021-09-10 05:53:00,,0830.0,5.00,0.00,29.5,28.5,00.0,38.5,31.3,10.2,-001.2,0020.65,0034.32,0019.28
2021-09-10 05:54:00,,0829.9,5.00,0.00,29.5,28.6,00.0,38.5,31.3,10.3,-001.3,0020.63,0033.84,0019.24
2021-09-10 05:55:00,,0829.9,5.00,0.00,29.6,28.7,00.0,38.5,31.4,10.1,-001.6,0020.59,0033.40,0019.20
2021-09-10 05:56:00,,0829.9,5.00,0.00,29.6,28.7,00.0,38.5,31.4,10.1,-001.7,0020.58,0032.75,0019.21
2021-09-10 05:57:00,,0829.9,5.00,0.00,29.7,28.8,00.0,38.6,31.5,10.2,-001.6,0020.59,0032.16,0019.24
2021-09-10 05:58:00,,0829.9,5.00,0.00,29.7,28.8,00.0,38.6,31.5,10.1,-001.6,0020.67,0032.19,0019.27
2021-09-10 05:59:00,,0829.9,4.99,0.00,29.7,28.5,00.0,38.6,31.4,10.1,-001.3,0020.69,0032.48,0019.30
